{"data":{"norad_id":67433,"intl_designator":"2026-006A","name":"YAOGAN-50 01","alt_names":[],"object_type":"PAYLOAD","status":"ACTIVE","operator":null,"country":"PRC","launch_date":"2026-01-13","launch_site_code":"TAISC","launch_vehicle":null,"mission":null,"orbit_class":"UNKNOWN","rcs_meters":null,"size_class":null,"mass_kg":null,"dimensions":null,"purposes":[],"wikipedia_slug":null,"has_3d_model":false,"image_url":null,"decayed_at":null,"tle_current":{"epoch":"2026-09-20T08:23:56.784192Z","epoch_age_seconds":113083,"freshness":"FRESH","line1":"1 67433U 26006A   26263.34996278 -.00000073  00000+0 -23510-3 0  9999","line2":"2 67433 142.0423 315.6593 0000754 295.4620  64.6021 13.83239720 34618","mean_motion":13.8323972,"eccentricity":7.54e-5,"inclination_deg":142.0423,"raan_deg":315.6593,"arg_perigee_deg":295.462,"mean_anomaly_deg":64.6021,"bstar":-0.0002351,"rev_number":3461,"period_min":104.10343045962,"perigee_km":951.86556734726,"apogee_km":952.97101508518,"semimajor_km":7330.5552912162,"source":"CELESTRAK","updated_at":"2026-09-21T09:00:16.632037Z"}}}